sat.trackr.live / text

‹ back to catalog

STARLINK-31748

NORAD 59612 · 2024-080M

PAYLOAD ACTIVE UNKNOWN

§ Identity

Operator
Country
US
Launch date
2024-04-28
Launch site
AFETR
Launch vehicle
Mass (kg)
RCS (m²)

Purposes: comms

External: N2YO · Heavens-Above · Gunter

§ Orbital elements

Epoch: 2026-09-21T13:51:29.653920Z

Period
94.27 min
Inclination
43.0019°
Eccentricity
0.0001189
Mean motion
15.27575373 rev/d
Perigee alt
482.2 km
Apogee alt
483.9 km
Semi-major
6,861.2 km
B*
1.8075e-5
RAAN
7.9645°
Arg perigee
274.4401°
Mean anomaly
85.6315°
Rev number
13,570

§ Raw data

STARLINK-317481 59612U 24080M   26264.57742655  .00000235  00000+0  18075-4 0  99922 59612  43.0019   7.9645 0001189 274.4401  85.6315 15.27575373135703

JSON: /api/v1/satellites/59612 · /tle

For live sub-satellite position, see the globe view (requires WebGL).

§ Visibility from observer

Set your observer location to see the next 7 days of passes ≥ 10°. The values pass through the URL so the page stays shareable.

No JS? Fill the form by hand. The geolocation button needs JavaScript.